Home   Weather   Malmö   Past weeks
Flag for Sweden

Past Weather in Malmö, Sweden — Yesterday and Last 2 Weeks

Now
54 °F

Fog.


Feels Like: 50 °F
Forecast: 53 / 49 °F
Wind: 12 mph from Southwest

Location: Malmo / Sturup

Current Time: Oct 22, 2019 at 8:45:43 am

Latest Report: Oct 22, 2019 at 7:50 am


Visibility: 1 mi

Pressure: 30.07 "Hg

Humidity: 94%

Dew Point: 52 °F

Location of MalmöLocation

Past Weather in Malmö — Graph

°F

Malmö Temperature Yesterday

Maximum temperature yesterday: 55 °F (at 2:50 pm)
Minimum temperature yesterday: 48 °F (at 2:50 am)
Average temperature yesterday: 52 °F

High & Low Weather Summary for the Past Weeks

 TemperatureHumidityPressure
High63 °F (Oct 13, 11:50 pm)100% (Oct 7, 9:50 pm)30.15 "Hg (Oct 7, 9:50 pm)
Low27 °F (Oct 7, 7:20 am)50% (Oct 7, 3:50 pm)29.47 "Hg (Oct 8, 1:20 pm)
Average52 °F91%29.76 "Hg
* Reported Oct 7 7:20 am — Oct 22 7:20 am, Malmö. Weather by CustomWeather, © 2019

Note: Actual official high and low records may vary slightly from our data, if they occured in-between our weather recording intervals... More about our weather records

Advertising

Malmö Weather History for the Previous 24 Hours

Scroll right to see more
 ConditionsComfort  
Time TempWeatherWind HumidityBarometerVisibility
7:20 am
Tue, Oct 22
52 °FFog.7 mph100%30.07 "Hg1 mi
6:50 am52 °FFog.6 mph100%30.07 "Hg0 mi
6:20 am48 °FFog.6 mph94%30.07 "Hg1 mi
5:50 am52 °FFog.7 mph94%30.07 "Hg2 mi
5:20 am52 °FFog.5 mph100%30.07 "Hg3 mi
4:50 am52 °FFog.7 mph100%30.09 "Hg3 mi
4:20 am52 °FFog.8 mph100%30.09 "Hg2 mi
3:50 am52 °FFog.6 mph100%30.09 "Hg2 mi
3:20 am54 °FFog.8 mph100%30.09 "Hg3 mi
2:50 am54 °FFog.8 mph100%30.09 "Hg3 mi
2:20 am55 °FMostly cloudy.9 mph88%30.09 "HgN/A
1:50 am55 °FLow clouds.9 mph94%30.09 "Hg6 mi
1:20 am55 °FMostly cloudy.9 mph94%30.09 "Hg5 mi
12:50 am55 °FMostly cloudy.12 mph94%30.09 "Hg4 mi
12:20 am55 °FLow clouds.12 mph100%30.07 "Hg3 mi
11:50 pm
Mon, Oct 21
54 °FFog.9 mph100%30.07 "Hg2 mi
11:20 pm54 °FFog.7 mph100%30.07 "Hg1 mi
10:50 pm54 °FFog.5 mph94%30.07 "Hg1 mi
10:20 pm52 °FFog.3 mph100%30.07 "Hg1 mi
9:50 pm54 °FFog.5 mph94%30.09 "Hg1 mi
9:20 pm54 °FFog.5 mph94%30.07 "Hg1 mi
8:50 pm52 °FFog.6 mph100%30.07 "Hg1 mi
8:20 pm52 °FFog.6 mph100%30.07 "Hg1 mi
7:50 pm54 °FLow clouds.6 mph94%30.09 "Hg4 mi
7:20 pm54 °FLow clouds.8 mph94%30.07 "HgN/A
6:50 pm54 °FLow clouds.9 mph94%30.07 "HgN/A
6:20 pm54 °FLow clouds.6 mph88%30.07 "HgN/A
5:50 pm54 °FOvercast.9 mph88%30.07 "HgN/A
5:20 pm54 °FBroken clouds.9 mph88%30.04 "HgN/A
4:50 pm54 °FPartly sunny.16 mph88%30.04 "HgN/A
4:20 pm54 °FPartly sunny.8 mph88%30.09 "HgN/A
3:50 pm55 °FPartly sunny.10 mph82%30.07 "HgN/A
3:20 pm55 °FBroken clouds.9 mph77%30.07 "HgN/A
2:50 pm55 °FPassing clouds.12 mph82%30.07 "HgN/A
2:20 pm54 °FSunny.12 mph88%30.07 "Hg10 mi
1:50 pm54 °FSunny.12 mph88%30.07 "Hg10 mi
1:20 pm54 °FScattered clouds.10 mph94%30.09 "HgN/A
12:50 pm54 °FPartly sunny.7 mph94%30.12 "HgN/A
12:20 pm54 °FSunny.10 mph88%30.09 "Hg10 mi
11:50 am54 °FSunny.8 mph94%30.09 "Hg10 mi
11:20 am54 °FPartly sunny.7 mph94%30.09 "Hg5 mi
10:50 am52 °FFog.7 mph100%30.09 "Hg5 mi
10:20 am52 °FFog.7 mph100%30.09 "Hg3 mi
9:50 am52 °FFog.6 mph100%30.09 "Hg2 mi
9:20 am52 °FFog.6 mph94%30.07 "Hg2 mi
8:50 am52 °FDrizzle. Mostly cloudy.5 mph94%30.07 "Hg2 mi
8:20 am52 °FScattered clouds.7 mph94%30.04 "Hg3 mi
Weather by CustomWeather, © 2019

See weather overview